226  
ASUS42 KTBW 211610  
RWRFL  
FLORIDA REGIONAL WEATHER ROUNDUP  
NATIONAL WEATHER SERVICE TAMPA BAY RUSKIN FL  
1100 AM EST FRI NOV 21 2014  
 
NOTE: "FAIR" INDICATES FEW OR NO CLOUDS BELOW 12,000 FEET WITH NO  
SIGNIFICANT WEATHER AND/OR S TO VISIBILITY
.  
 
 
FLZ001>010-012>015-112-114-115-211700-  
PANHANDLE FLORIDA  
 
CITY SKY/WX TMP DP RH WIND PRES REMARKS
 
PENSACOLA SUNNY 61 46 57 VRB7 30.36R  
PENSACOLA NAS MOSUNNY 64 49 57 NE12 30.35S  
MILTON NAS SUNNY 62 45 53 NE7 30.37S  
CRESTVIEW SUNNY 65 47 52 NE8 30.38F  
TRI COUNTY FAIR 64 46 52 NE8 30.38S  
PANAMA CITY FAIR 62 45 53 N12 30.35S  
APALACHICOLA SUNNY 66 43 43 E13G21 30.35S  
 
STATION/POSITION SKY/WX TEMP WIND PRES WAVE SWELL
 
AIR SEA DIR/SP/G HT/PER HT/PER  
(F) (DEG/KT/KT) (MB) (FT/S) (FT/S)  
30.1N 87.6W 61 65 60/ 16/ 17 1026.9R 3/ 4  
29.2N 88.2W 66 73 80/ 16/ 19 1027.3 3/ 6 2/ 7  
28.7N 86.0W 66 76 70/ 16/ 19 1026.5R 4/ 5  
PANAMA CITY BEAC 61 64 50/ 6/ 10 1027.7S  
CAPE SAN BLAS NOT AVBL  
TOWER C 60 50/ 19/ 22 1027.2R  
28.5N 84.5W 64 71 70/ 21/ 25 1025.6S 6/ 6  
 

 
FLZ011-016>038-118-127-128-134-139-239-211700-  
NORTH FLORIDA  
 
CITY SKY/WX TMP DP RH WIND PRES REMARKS
 
MARIANNA SUNNY 62 46 55 NE9 30.37F  
TALLAHASSEE SUNNY 64 41 42 NE9 30.37S  
PERRY SUNNY 64 44 47 NE8 30.37R  
CROSS CITY N/A 65 43 44 NE8 30.35S  
LAKE CITY FAIR 63 43 48 NE7 30.36S  
GAINESVILLE SUNNY 65 42 43 E13 30.35F  
MAYPORT NAS SUNNY 66 50 56 NE14 30.37R  
JACKSONVILLE MOSUNNY 66 41 40 NE14 30.37S  
JAX NAS MOSUNNY 66 45 46 N10 30.37S  
JAX CRAIG SUNNY 65 46 50 NE10G21 30.37S  
JAX CECIL SUNNY 64 41 42 NE7 30.37S  
FERNANDINA BEA FAIR 68 50 52 N9 30.36S  
ST AUGUSTINE SUNNY 66 66 100 NE13 30.37R  
 
STATION/POSITION SKY/WX TEMP WIND PRES WAVE SWELL
 
AIR SEA DIR/SP/G HT/PER HT/PER  
(F) (DEG/KT/KT) (MB) (FT/S) (FT/S)  
SHELL POINT 54 40/ 3/ 6 N/A  
KEATON BEACH 62 50/ 10/ 13 1027.9F  
CEDAR KEY 58 50/ 13/ 15 1027.3R  
FERNANDINA 59 58 20/ 7/ 10 1028.0S  
30.7N 81.3W 63 N/A 2/ 9  
MAYPORT 62 63 40/ 12/ 15 N/A  
31.4N 80.9W 60 64 20/ 16/ 17 1028.2F 2/ 3 2/ 8  
ST AUGUSTINE 63 20/ 15/ 17 1028.6R  
 

 
FLZ040-043>046-052-053-057-058-063-144-211700-  
INTERIOR CENTRAL FLORIDA  
 
CITY SKY/WX TMP DP RH WIND PRES REMARKS
 
OCALA SUNNY 64 41 42 NE12 30.33F  
THE VILLAGES N/A 66 46 48 N10G20 30.23S  
LEESBURG SUNNY 68 47 46 NE16G24 30.32F  
SANFORD MOSUNNY 71 51 49 NE21 30.30F  
ORLANDO EXEC MOSUNNY 69 53 56 NE9 30.29F  
ORLANDO INTL MOSUNNY 71 53 52 NE15 30.29F  
KISSIMMEE SUNNY 70 54 56 NE13G21 30.30S  
WINTER HAVEN PTSUNNY 68 49 50 NE13 30.30S  
LAKELAND MOSUNNY 68 48 49 NE12G17 30.28F  
BARTOW PTSUNNY 66 48 52 NE17G29 30.28F  
OKEECHOBEE CLOUDY 73 59 60 NE12G23 30.25S  
 

 
FLZ041-047-054-059-064-141-147-211700-  
EAST CENTRAL FLORIDA  
 
CITY SKY/WX TMP DP RH WIND PRES REMARKS
 
ORMOND BEACH SUNNY 68 50 52 NE8G17 30.33S  
DAYTONA BEACH MOSUNNY 71 50 47 NE13 30.33S  
DELAND SUNNY 68 50 52 NE14 30.33S  
NEW SMYRNA BEA SUNNY 68 52 56 NE15G25 30.33S  
TITUSVILLE PTSUNNY 70 54 56 N18 30.29F  
MELBOURNE MOSUNNY 75 56 51 NE18 30.27S  
VERO BEACH PTSUNNY 72 58 61 NE17 30.26S  
FT PIERCE MOSUNNY 73 60 63 NE9 30.25S  
STUART CLOUDY 72 59 64 E16G22 30.25R  
 
STATION/POSITION SKY/WX TEMP WIND PRES WAVE SWELL
 
AIR SEA DIR/SP/G HT/PER HT/PER  
(F) (DEG/KT/KT) (MB) (FT/S) (FT/S)  
28.5N 80.2W 71 77 50/ 14/ 17 1025.6R  
28.9N 78.5W 72 78 40/ 16/ 21 1025.3F 4/ 8 3/ 8  
TRIDENT PIER 73 69 20/ 12/ 20 1025.0F  
28.4N 80.5W 67 N/A 3/ 8  
27.6N 80.2W 71 N/A 5/ 5  
 

 
FLZ050-056-061-142-242-148-248-149-249-151-251-155-255-  
160-260-211700-  
WEST CENTRAL FLORIDA  
 
CITY SKY/WX TMP DP RH WIND PRES REMARKS
 
CRYSTAL RIVER FAIR 66 37 34 NE13 30.31F  
INVERNESS FAIR 66 39 37 NE10 30.32F HAZE  
BROOKSVILLE SUNNY 66 40 38 NE17 30.30F  
ZEPHYRHILLS FAIR 68 43 40 E10G17 30.30F  
CLEARWATER PTSUNNY 66 48 52 E13G18 30.27F  
TAMPA INTL PTSUNNY 66 43 43 NE13G21 30.28F  
TAMPA EXEC PTSUNNY 70 45 40 NE9G16 30.29F  
PLANT CITY MOSUNNY 70 46 43 NE14 30.29F  
PETER O KNIGHT PTSUNNY 70 46 43 NE14 30.27F  
ST PETERSBURG MOSUNNY 63 50 62 NE15 30.27S  
SARASOTA CLOUDY 67 50 54 E14 30.24S  
VENICE PTSUNNY 66 54 63 NE14G21 30.25S  
 
STATION/POSITION SKY/WX TEMP WIND PRES WAVE SWELL
 
AIR SEA DIR/SP/G HT/PER HT/PER  
(F) (DEG/KT/KT) (MB) (FT/S) (FT/S)  
CEDAR KEY 58 50/ 13/ 15 1027.3R  
28.5N 84.5W 64 71 70/ 21/ 25 1025.6S 6/ 6  
27.3N 84.3W 75 N/A 6/ 6  
CLEARWATER BEACH 64 60 40/ 9/ 12 1024.6F  
MIDDLE TAMPA BAY 61 60/ 14/ 17 N/A  
VENICE 65 65 50/ 14/ 17 1023.4F  
 

 
FLZ066-069-070-075>078-162-262-165-265-211700-  
SOUTHWEST FLORIDA AND KEYS  
 
CITY SKY/WX TMP DP RH WIND PRES REMARKS
 
PUNTA GORDA CLOUDY 71 57 61 NE18 30.24F  
FT MYERS CLOUDY 68 58 70 E12 30.21F  
SOUTHWEST INTL CLOUDY 68 59 73 NE12 30.22F  
NAPLES CLOUDY 69 61 75 NE16G23 30.18F  
MARCO ISLAND CLOUDY 68 63 83 NE14 30.19F  
MARATHON HVY RAIN 71 71 100 NE17G24 30.12F FOG  
KEY WEST NAS CLOUDY 72 68 87 NE14 30.13S  
KEY WEST INTL CLOUDY 72 72 100 NE13G23 30.13S  
 
STATION/POSITION SKY/WX TEMP WIND PRES WAVE SWELL
 
AIR SEA DIR/SP/G HT/PER HT/PER  
(F) (DEG/KT/KT) (MB) (FT/S) (FT/S)  
VENICE 65 65 50/ 14/ 17 1023.4F  
NAPLES 68 72 60/ 8/ 14 1022.8F  
26.0N 85.6W 73 76 60/ 19/ 23 1022.2F 5/ 5 2/14  
DRY TORTUGAS 71 50/ 29/ 34 1020.4R  
NW FL BAY 71 40/ 17/ 19 1021.2R  
SAND KEY 72 40/ 24/ 26 1020.0R  
SOMBRERO KEY 71 40/ 25/ 27 1019.4F  
LONG KEY 70 71 10/ 15/ 15 1021.5R  
MOLASSES REEF 75 77 70/ 26/ 28 1019.9F  
 

 
FLZ067-068-071>074-168-172>174-211700-  
SOUTHEAST FLORIDA  
 
CITY SKY/WX TMP DP RH WIND PRES REMARKS
 
W PALM BEACH RAIN 70 66 87 NE15 30.21S FOG  
FT LAUDER-EXEC LGT RAIN 70 67 90 NE13G22 30.19F FOG  
FT LAUDERDALE LGT RAIN 72 69 90 NE17G24 30.18F FOG  
POMPANO BEACH LGT RAIN 71 69 93 NE17G29 30.20S FOG  
PEMBROKE PINES LGT RAIN 71 69 93 NE16 30.21S  
OPA LOCKA LGT RAIN 71 69 93 NE12 30.19S FOG  
MIAMI LGT RAIN 71 69 93 NE10 30.19S FOG  
WEST KENDALL CLOUDY 72 69 90 NE15 30.17F  
HOMESTEAD DRIZZLE 72 70 94 NE18 30.16F  
 
STATION/POSITION SKY/WX TEMP WIND PRES WAVE SWELL
 
AIR SEA DIR/SP/G HT/PER HT/PER  
(F) (DEG/KT/KT) (MB) (FT/S) (FT/S)  
PORT EVERGLADES 72 50/ 19/ 25 1022.1  
VIRGINIA KEY 73 74 50/ 12/ 19 1022.0F  
LAKE WORTH 73 76 60/ 22/ 25 1022.7F  
SETTLEMENT POINT 69 60/ 21/ 23 1023.9R  
 

 
 
CLICK HERE TO GO TO PREVIOUS BULLETINS.

The Nexlab FL Page Main Text Page